User: anonymous
Location: Ottawa
(45.4170°N, 75.7000°W)
Time: 02:55:52
(UTC-04:00)
Language:

Aureole 3 Rocket - Orbit

View from above orbital plane
View from above orbital plane
View from above satellite
View from above satellite

Ground track
Ground track

The orbit data is extracted from the following two-line orbital elements,

1 12849U 81094B   14243.60328929  .00000633  00000-0  59877-4 0  9687
2 12849 082.4923 229.0551 0910012 276.2730 073.5650 13.48241040604270
Epoch (UTC): 31 August 2014 14:28:44
Eccentricity: 0.0910012
inclination: 82.4923°
perigee height: 400 km
apogee height: 1757 km
right ascension of ascending node: 229.0551°
argument of perigee: 276.2730°
revolutions per day: 13.48241040
mean anomaly at epoch: 73.5650°
orbit number at epoch: 60427

The dashed part of the orbit path shows where the satellite is in the earth's shadow,  

DLR